Weather History for Val Marie Southeast, SK

Change the Weather History Date:

Sunday, November 11, 2012

  Actual Average Record
Temperature  
Mean Temperature -2 °F -  
Max Temperature 9 °F - - ()
Min Temperature -16 °F - - ()
Degree Days  
Heating Degree Days 68    
Moisture  
Dew Point -2 °F    
Average Humidity 78    
Maximum Humidity 86    
Minimum Humidity 57    
Precipitation  
Precipitation 0.00 in - - ()
Sea Level Pressure  
Sea Level Pressure 30.18 in    
Wind  
Wind Speed 10 mph ()    
Max Wind Speed 18 mph    
Max Gust Speed -    
T = Trace of Precipitation, MM = Missing Value Source: Averaged Metar Reports

Daily Weather History Graph

Daily Weather History Graph

Search for Another Location

Airport:

Trip Planner

Search our weather history database for the weather conditions in past years. The results will help you decide how hot, cold, wet, or windy it might be!

Date:

Astronomy

Nov. 11, 2012 Rise Set
Actual Time 8:14 AM CST 5:33 PM CST
Civil Twilight 7:40 AM CST 6:07 PM CST
Nautical Twilight 7:01 AM CST 6:46 PM CST
Astronomical Twilight 6:24 AM CST 7:23 PM CST
Moon 5:21 AM CST (11/11) 4:07 PM CST (11/11)
Length of Visible Light 10h 27m
Length of Day
9h 18m
Waning Crescent, 7% of the Moon is Illuminated
Nov 11
Waning Crescent
Nov 13
New
Nov 20
First Quarter
Nov 28
Full
Dec 6
Last Quarter

Hourly Weather History & Observations

Time (CST) Temp. Windchill Dew Point Humidity Pressure Visibility Wind Dir Wind Speed Gust Speed Precip Events Conditions
12:00 AM 6 °F - 2 °F 75% 30.13 in - NW 13.8 mph - -  
12:00 AM 5.7 °F -11.4 °F 1.9 °F 84% 30.13 in - NW 13.8 mph - N/A   Unknown
1:00 AM 5.5 °F -10.9 °F 1.6 °F 84% 30.13 in - NW 12.7 mph - N/A   Unknown
2:00 AM 5.2 °F -12.1 °F 0.9 °F 82% 30.12 in - NW 13.8 mph - N/A   Unknown
3:00 AM 5 °F - 0 °F 73% 30.13 in - NW 13.8 mph - -  
3:00 AM 4.6 °F -12.8 °F 0.5 °F 83% 30.13 in - NW 13.8 mph - N/A   Unknown
4:00 AM 4.6 °F -13.4 °F 0.7 °F 84% 30.14 in - NW 15.0 mph - N/A   Unknown
5:00 AM 5.4 °F -13.7 °F 1.0 °F 82% 30.13 in - WNW 17.3 mph - N/A   Unknown
6:00 AM 5 °F - 0 °F 73% 30.14 in - NNW 18.4 mph - -  
6:00 AM 5.2 °F -14.5 °F 0.5 °F 81% 30.14 in - NNW 18.4 mph - N/A   Unknown
7:00 AM 5.4 °F -11.1 °F 0.9 °F 82% 30.15 in - NNW 12.7 mph - N/A   Unknown
8:00 AM 5.5 °F -9.3 °F 1.4 °F 83% 30.16 in - NW 10.4 mph - N/A   Unknown
9:00 AM 6 °F - 2 °F 73% 30.18 in - WNW 9.2 mph - -  
9:00 AM 5.5 °F -8.4 °F 1.6 °F 84% 30.18 in - WNW 9.2 mph - N/A   Unknown
10:00 AM 6.3 °F -9.2 °F 1.6 °F 81% 30.18 in - NW 11.5 mph - N/A   Unknown
11:00 AM 6.4 °F -6.3 °F 1.4 °F 80% 30.19 in - WNW 8.1 mph - N/A   Unknown
12:00 PM 5 °F - -1 °F 67% 30.20 in - WNW 16.1 mph - -  
12:00 PM 5.2 °F -13.3 °F -0.8 °F 76% 30.20 in - WNW 16.1 mph - N/A   Unknown
1:00 PM 7.5 °F -2.6 °F -0.0 °F 71% 30.20 in - NW 5.8 mph - N/A   Unknown
2:00 PM 7.9 °F -0.7 °F 0.5 °F 72% 30.19 in - North 4.6 mph - N/A   Unknown
3:00 PM 8 °F - -0 °F 57% 30.19 in - NW 2.3 mph - -  
3:00 PM 8.4 °F - -0.0 °F 68% 30.19 in - NW 2.3 mph - N/A   Unknown
4:00 PM 5.9 °F -3.0 °F -1.7 °F 71% 30.20 in - West 4.6 mph - N/A   Unknown
5:00 PM 1.6 °F -12.2 °F -4.2 °F 77% 30.22 in - West 8.1 mph - N/A   Unknown
6:00 PM -3 °F - -7 °F 74% 30.23 in - WNW 2.3 mph - -  
6:00 PM -2.6 °F - -7.1 °F 81% 30.23 in - WNW 2.3 mph - N/A   Unknown
7:00 PM -3.6 °F - -6.9 °F 86% 30.24 in - WNW 1.2 mph - N/A   Unknown
8:00 PM -11.2 °F -24.8 °F -14.6 °F 85% 30.25 in - SW 5.8 mph - N/A   Unknown
9:00 PM -9 °F - -13 °F 75% 30.25 in - SSW 2.3 mph - -  
10:00 PM -14.3 °F - -18.8 °F 80% 30.25 in - SW 1.2 mph - N/A   Unknown
11:00 PM -16.1 °F - -20.2 °F 82% 30.25 in - WSW 1.2 mph - N/A   Unknown